Location: High Cliff State Park
(44.1557°N, 88.2948°W)
Time: 03:10:26
(UTC-05:00)

Amateur Radio Satellites - All Passes

Search period start: 29 May 2015 02:40
Search period end: 30 May 2015 02:40
Location: High Cliff State Park, 44.1557°N, 88.2948°W

Satellite Date Start Highest point End Downlink Frequencies (MHz)
Time Altitude Azimuth
BEESAT 3 29 May 02:43:03 02:47:07 62° 239° (WSW) 02:51:04 437.485
SO-50 29 May 02:50:09 02:54:42 53° 120° (ESE) 02:59:27 436.795
ISS 29 May 02:50:57 02:53:37 22° 7° (N) 02:56:17 145.825
ITUPSAT 1 29 May 02:52:38 02:56:18 21° 268° (W) 02:59:53 437.325
BEESAT 29 May 02:59:19 03:02:39 18° 270° (W) 03:05:51 436.000
SWISSCUBE 29 May 03:09:12 03:11:43 14° 272° (W) 03:14:01 437.505
AO-7 29 May 03:10:19 03:13:08 12° 82° (E) 03:16:39 29.400- 29.500
Gurwin Techsat 1B 29 May 03:22:38 03:27:57 69° 102° (ESE) 03:33:16 435.225
STARS 29 May 03:24:00 03:28:27 73° 257° (WSW) 03:32:56 437.465
PHONESAT 2.4 29 May 03:27:50 03:31:03 34° 167° (SSE) 03:34:15 2401.200-2431.200
PCSat 29 May 03:28:36 03:30:45 12° 331° (NNW) 03:32:44 145.827
BEESAT 2 29 May 03:35:32 03:38:49 23° 246° (WSW) 03:41:58 435.950
AIST 2 29 May 03:39:05 03:43:19 71° 237° (WSW) 03:47:26 435.215
Cosmos 2499 29 May 03:46:04 03:51:52 27° 275° (W) 03:57:33 435.465 / 435.565
Oscar 19 29 May 03:53:22 03:57:13 21° 297° (WNW) 04:00:56 437.125/150
KKS-1 29 May 04:03:20 04:06:39 19° 269° (W) 04:09:51 437.445
JAS-2 29 May 04:08:56 04:13:36 34° 96° (E) 04:18:28 435.910
VERMONT LUNAR 29 May 04:09:24 04:12:26 39° 187° (S) 04:15:27 437.305
MOZHAYETS 4 29 May 04:10:42 04:15:02 45° 72° (ENE) 04:19:25
ITAMSAT 1 29 May 04:11:33 04:16:29 43° 291° (WNW) 04:21:24 435.822/435.867
ISS 29 May 04:27:18 04:30:32 55° 27° (NNE) 04:33:45 145.825
SO-50 29 May 04:31:31 04:35:33 26° 320° (NW) 04:39:40 436.795
HORYU 2 29 May 04:44:40 04:49:08 80° 103° (ESE) 04:53:32 437.375
AO-7 29 May 04:59:28 05:07:49 66° 104° (ESE) 05:16:08 29.400- 29.500
Gurwin Techsat 1B 29 May 05:03:50 05:07:26 18° 299° (WNW) 05:10:53 435.225
PHONESAT 2.4 29 May 05:05:32 05:08:52 45° 184° (S) 05:12:11 2401.200-2431.200
VERMONT LUNAR 29 May 05:46:54 05:49:11 18° 203° (SSW) 05:51:26 437.305
Cosmos 2491 29 May 05:48:34 05:56:55 45° 71° (ENE) 06:05:17 435.465 / 435.565
MOZHAYETS 4 29 May 05:49:12 05:52:33 19° 269° (W) 05:55:46
JAS-2 29 May 05:54:14 05:58:47 31° 293° (WNW) 06:03:21 435.910
CUBESAT XI-V 29 May 05:55:53 06:00:16 47° 72° (ENE) 06:04:44 437.345
ISS 29 May 06:04:07 06:06:45 22° 223° (SW) 06:09:20 145.825
PRISM 29 May 06:18:20 06:22:03 35° 70° (ENE) 06:25:50 437.425
HORYU 2 29 May 06:23:21 06:25:12 12° 300° (WNW) 06:26:52 437.375
M-CUBED/EXP-1 PRIME 29 May 06:30:04 06:33:42 32° 66° (ENE) 06:37:07 437.505
STRAND 1 29 May 06:33:31 06:38:26 51° 71° (ENE) 06:43:24 437.568
AUBIESAT-1 29 May 06:35:57 06:39:32 32° 66° (ENE) 06:42:55 437.475
CUTE-I 29 May 06:41:25 06:46:19 36° 96° (E) 06:51:15 437.470
YUBILEINY 29 May 06:41:26 06:49:07 37° 86° (E) 06:56:58 435.215
PHONESAT 2.4 29 May 06:43:43 06:46:36 24° 200° (SSW) 06:49:27 2401.200-2431.200
AIST 1 29 May 06:47:55 06:51:21 22° 71° (ENE) 06:54:51
AO-7 29 May 06:52:56 07:00:09 33° 304° (WNW) 07:07:11 29.400- 29.500
Cubesat XI-IV 29 May 07:02:33 07:07:49 55° 100° (E) 07:13:06 437.490
CUBESAT XI-V 29 May 07:34:41 07:38:01 19° 270° (W) 07:41:14 437.345
Cosmos 2491 29 May 07:45:37 07:53:50 44° 272° (W) 08:01:53 435.465 / 435.565
GOMX 1 29 May 07:51:31 07:52:55 11° 82° (E) 07:54:38 467.674
PRISM 29 May 07:54:34 07:57:39 20° 267° (W) 08:00:39 437.425
BRITE-PL 29 May 07:59:19 08:03:39 23° 89° (E) 08:07:57 437.365/2234.400
M-CUBED/EXP-1 PRIME 29 May 08:05:19 08:08:36 22° 260° (W) 08:11:37 437.505
AUBIESAT-1 29 May 08:11:09 08:14:22 22° 260° (W) 08:17:19 437.475
STRAND 1 29 May 08:14:07 08:17:59 21° 269° (W) 08:21:44 437.568
Cosmos 2504 29 May 08:20:26 08:24:03 14° 79° (E) 08:28:06 435.465 / 435.565
CUTE-I 29 May 08:21:35 08:26:22 33° 294° (WNW) 08:31:05 437.470
AIST 1 29 May 08:25:07 08:29:07 34° 268° (W) 08:33:04
RS-15 29 May 08:32:12 08:42:33 55° 114° (ESE) 08:53:17 29.354- 29.394
SEEDS 29 May 08:33:48 08:35:04 11° 87° (E) 08:36:33 437.485
YUBILEINY 29 May 08:37:15 08:45:46 52° 286° (WNW) 08:54:12 435.215
DOVE 4 29 May 08:38:28 08:42:07 20° 89° (E) 08:45:47 437.250
HO-68 29 May 08:41:58 08:47:53 28° 93° (E) 08:53:56 435.675
COMPASS 1 29 May 08:42:58 08:44:16 11° 87° (E) 08:45:47 437.405
Cubesat XI-IV 29 May 08:43:26 08:47:35 23° 297° (WNW) 08:51:37 437.490
PCSat 29 May 08:43:43 08:48:38 34° 47° (NE) 08:53:33 145.827
AAUSAT CUBESAT 2 29 May 08:52:32 08:54:17 13° 88° (E) 08:56:15 437.432
TIGRISAT 29 May 09:12:06 09:14:09 13° 62° (ENE) 09:16:25 435.000
GOMX 1 29 May 09:26:37 09:32:02 87° 107° (ESE) 09:37:07 467.674
UNISAT 6 29 May 09:32:09 09:35:33 21° 66° (ENE) 09:39:02 437.425
CINEMA 3 29 May 09:34:42 09:38:58 33° 95° (E) 09:43:03 145.822/145.860
BRITE-PL 29 May 09:37:00 09:42:32 53° 289° (WNW) 09:47:45 437.365/2234.400
SO-50 29 May 09:40:34 09:43:40 16° 32° (NNE) 09:46:52 436.795
QB50P2 29 May 09:45:10 09:46:56 13° 62° (ENE) 09:48:53 145.880/145.840
CANX-2 29 May 09:45:27 09:49:42 85° 284° (WNW) 09:53:54 2200.000
CUTE 1.7 + AOD 2 29 May 09:48:36 09:52:51 87° 285° (WNW) 09:57:03 437.475
DUCHIFAT 1 29 May 09:55:50 09:58:16 15° 63° (ENE) 10:00:50 145.980
POPSAT HIP 1 29 May 09:55:57 09:58:27 16° 64° (ENE) 10:01:08 437.405
ZACube-1 29 May 10:00:13 10:03:15 19° 91° (E) 10:06:20 437.345
Oscar 11 29 May 10:06:05 10:10:06 38° 97° (E) 10:14:07 145.826/435.025
SEEDS 29 May 10:07:14 10:11:24 65° 285° (WNW) 10:15:31 437.485
BUGSAT 1 29 May 10:07:38 10:09:43 14° 63° (ENE) 10:12:00 437.445
Cosmos 2504 29 May 10:08:11 10:16:26 77° 96° (E) 10:24:08 435.465 / 435.565
CUBEBUG 2 29 May 10:09:08 10:13:16 37° 96° (E) 10:17:16 437.445
DX 1 29 May 10:10:40 10:11:58 11° 87° (E) 10:13:31 434.975-435.025
ANTELSAT 29 May 10:14:15 10:18:46 52° 73° (ENE) 10:23:17 437.575/2403.000
DOVE 4 29 May 10:15:18 10:20:15 50° 289° (WNW) 10:24:54 437.250
COMPASS 1 29 May 10:16:20 10:20:27 64° 286° (WNW) 10:24:33 437.405
AAUSAT CUBESAT 2 29 May 10:26:16 10:30:21 58° 286° (WNW) 10:34:24 437.432
PCSat 29 May 10:27:04 10:32:10 41° 247° (WSW) 10:37:12 145.827
HO-68 29 May 10:29:05 10:36:07 60° 292° (WNW) 10:43:04 435.675
VELOX 1 29 May 10:35:12 10:36:03 11° 86° (E) 10:37:12 145.980
DELFI C3 29 May 10:36:10 10:40:09 59° 100° (E) 10:44:07 145.870
QB50P1 29 May 10:37:56 10:41:57 40° 71° (ENE) 10:46:01 145.935-145.965
POLYITAN 1 29 May 10:41:18 10:45:24 45° 72° (ENE) 10:49:34 437.675
YUBILEINY 29 May 10:43:17 10:45:23 11° 313° (NW) 10:46:51 435.215
RS-15 29 May 10:44:32 10:55:09 52° 319° (NW) 11:06:06 29.354- 29.394
TIGRISAT 29 May 10:45:40 10:50:22 80° 259° (WSW) 10:55:01 435.000
UWE-3 29 May 10:50:50 10:55:15 85° 102° (ESE) 10:59:30 435.000/436.395/437.385
FUNcube-1 29 May 10:53:51 10:58:10 70° 101° (E) 11:02:22 145.935
AISAT 29 May 11:05:33 11:09:09 24° 93° (E) 11:12:50 437.250
GOMX 1 29 May 11:06:25 11:09:24 15° 301° (WNW) 11:12:06 467.674
UNISAT 6 29 May 11:07:32 11:12:04 46° 261° (W) 11:16:31 437.425
NANOSAT C BR1 29 May 11:07:59 11:12:16 85° 73° (ENE) 11:16:35 145.865
HUMSAT D 29 May 11:08:19 11:12:20 46° 99° (E) 11:16:18 437.325/437.525
CINEMA 3 29 May 11:12:03 11:16:04 27° 293° (WNW) 11:19:49 145.822/145.860
GONETS M04 29 May 11:16:00 11:19:03 13° 74° (ENE) 11:22:47
QB50P2 29 May 11:18:00 11:22:18 73° 259° (W) 11:26:38 145.880/145.840
SO-50 29 May 11:20:08 11:25:07 73° 52° (NE) 11:30:02 436.795
50 SAT 29 May 11:28:11 11:31:52 42° 98° (E) 11:35:33 437.505
DUCHIFAT 1 29 May 11:29:27 11:33:40 57° 260° (W) 11:37:54 145.980
POPSAT HIP 1 29 May 11:29:42 11:33:56 56° 260° (W) 11:38:11 437.405
UKube-1 29 May 11:31:43 11:36:06 78° 103° (ESE) 11:40:26 .
ZACube-1 29 May 11:35:47 11:39:51 40° 289° (WNW) 11:43:48 437.345
BUGSAT 1 29 May 11:40:36 11:44:44 62° 259° (W) 11:48:56 437.445
Oscar 11 29 May 11:42:45 11:46:05 22° 294° (WNW) 11:49:19 145.826/435.025
DX 1 29 May 11:44:24 11:48:49 73° 285° (WNW) 11:53:11 434.975-435.025
CUBEBUG 2 29 May 11:46:16 11:49:45 22° 294° (WNW) 11:53:04 437.445
ANTELSAT 29 May 11:52:39 11:55:53 18° 270° (W) 11:58:57 437.575/2403.000
Oscar 19 29 May 11:55:21 11:57:53 14° 59° (ENE) 12:00:38 437.125/150
CUBEBUG 1 29 May 11:59:24 12:03:40 44° 98° (E) 12:07:56 437.445
Cosmos 2504 29 May 12:04:22 12:10:40 23° 296° (WNW) 12:16:26 435.465 / 435.565
VELOX 1 29 May 12:08:46 12:13:17 79° 286° (WNW) 12:17:45 145.980
DELFI C3 29 May 12:12:51 12:14:50 13° 296° (WNW) 12:16:38 145.870
DANDE 29 May 12:13:50 12:20:22 34° 86° (E) 12:27:50 436.750
QB50P1 29 May 12:14:51 12:18:01 19° 268° (W) 12:21:06 145.935-145.965
POLYITAN 1 29 May 12:18:36 12:21:35 18° 269° (W) 12:24:28 437.675
HO-68 29 May 12:19:13 12:22:33 13° 311° (NW) 12:25:31 435.675
ESTCUBE 1 29 May 12:22:01 12:26:35 87° 103° (ESE) 12:31:08 437.505/2401.250
CUSAT 1 29 May 12:26:14 12:33:32 51° 92° (E) 12:41:33 437.405
SPROUT 29 May 12:28:20 12:31:57 26° 94° (E) 12:35:36 437.525
UWE-3 29 May 12:29:52 12:31:08 11° 300° (WNW) 12:32:11 435.000/436.395/437.385
FUNcube-1 29 May 12:32:01 12:33:58 13° 298° (WNW) 12:35:43 145.935
TISAT 1 29 May 12:41:13 12:44:45 25° 94° (E) 12:48:19 437.305
AISAT 29 May 12:41:43 12:45:51 36° 291° (WNW) 12:49:55 437.250
HUMSAT D 29 May 12:45:01 12:47:46 17° 295° (WNW) 12:50:22 437.325/437.525
RS-15 29 May 13:01:55 13:11:00 27° 351° (N) 13:20:19 29.354- 29.394
SO-50 29 May 13:02:03 13:05:09 16° 250° (WSW) 13:08:02 436.795
50 SAT 29 May 13:03:49 13:06:18 16° 295° (WNW) 13:08:38 437.505
GONETS M04 29 May 13:05:40 13:14:21 67° 93° (E) 13:23:07
Gurwin Techsat 1B 29 May 13:07:37 13:11:08 19° 61° (ENE) 13:14:49 435.225
UKube-1 29 May 13:09:51 13:11:41 12° 299° (WNW) 13:13:20 .
BEESAT 29 May 13:20:45 13:22:17 12° 87° (E) 13:24:06 436.000
SWISSCUBE 29 May 13:28:40 13:31:27 16° 89° (E) 13:34:26 437.505
Oscar 19 29 May 13:31:22 13:36:35 88° 264° (W) 13:41:50 437.125/150
CUBEBUG 1 29 May 13:36:27 13:39:45 20° 295° (WNW) 13:42:58 437.445
ITAMSAT 1 29 May 13:51:49 13:56:41 45° 70° (ENE) 14:01:39 435.822/435.867
DANDE 29 May 13:55:44 14:03:12 59° 287° (WNW) 14:11:41 436.750
ESTCUBE 1 29 May 14:01:10 14:02:51 12° 300° (WNW) 14:04:17 437.505/2401.250
SPROUT 29 May 14:04:13 14:08:04 31° 291° (WNW) 14:11:51 437.525
CUSAT 1 29 May 14:09:10 14:16:29 41° 292° (WNW) 14:24:12 437.405
AO-7 29 May 14:09:58 14:16:13 25° 52° (NE) 14:22:44 29.400- 29.500
HORYU 2 29 May 14:11:41 14:12:38 11° 59° (ENE) 14:13:48 437.375
TISAT 1 29 May 14:16:45 14:20:33 31° 291° (WNW) 14:24:16 437.305
O/OREOS (USA 219) 29 May 14:16:48 14:18:58 14° 100° (E) 14:21:21 437.305
JAS-2 29 May 14:23:48 14:28:12 21° 63° (ENE) 14:32:27 435.910
Cosmos 2499 29 May 14:30:15 14:37:38 44° 90° (E) 14:44:38 435.465 / 435.565
Gurwin Techsat 1B 29 May 14:45:22 14:50:38 67° 258° (WSW) 14:55:58 435.225
ITUPSAT 1 29 May 14:50:07 14:54:56 88° 99° (E) 14:59:46 437.325
BEESAT 29 May 14:56:02 15:00:50 80° 284° (WNW) 15:05:37 436.000
GONETS M04 29 May 15:04:23 15:12:01 30° 296° (WNW) 15:19:26
SWISSCUBE 29 May 15:05:03 15:09:47 61° 288° (WNW) 15:14:30 437.505
STARS 29 May 15:13:13 15:16:15 18° 91° (E) 15:19:24 437.465
Oscar 19 29 May 15:15:05 15:16:48 11° 275° (W) 15:18:12 437.125/150
RS-15 29 May 15:17:56 15:27:54 34° 25° (NNE) 15:38:25 29.354- 29.394
ITAMSAT 1 29 May 15:32:14 15:36:27 24° 267° (W) 15:40:35 435.822/435.867
DANDE 29 May 15:44:03 15:48:39 15° 310° (NW) 15:52:58 436.750
HORYU 2 29 May 15:44:08 15:48:38 88° 67° (ENE) 15:53:08 437.375
KKS-1 29 May 15:51:21 15:55:51 74° 102° (ESE) 16:00:18 437.445
O/OREOS (USA 219) 29 May 15:53:27 15:57:55 63° 296° (WNW) 16:02:24 437.305
AO-7 29 May 15:59:52 16:08:11 85° 252° (WSW) 16:16:35 29.400- 29.500
JAS-2 29 May 16:06:28 16:12:59 69° 258° (WSW) 16:18:46 435.910
Cosmos 2499 29 May 16:23:31 16:30:54 39° 289° (WNW) 16:37:44 435.465 / 435.565
CUTE-I 29 May 16:29:53 16:30:47 11° 55° (NE) 16:31:59 437.470
ITUPSAT 1 29 May 16:30:05 16:32:13 13° 301° (WNW) 16:34:08 437.325
BEESAT 29 May 16:36:39 16:37:58 11° 302° (WNW) 16:39:01 436.000
BEESAT 3 29 May 16:38:31 16:41:00 16° 112° (ESE) 16:43:37 437.485
STARS 29 May 16:48:43 16:52:58 45° 289° (WNW) 16:57:09 437.465
Cubesat XI-IV 29 May 16:48:58 16:52:00 16° 59° (ENE) 16:55:15 437.490
YUBILEINY 29 May 16:49:35 16:55:26 20° 58° (ENE) 17:01:39 435.215
BEESAT 2 29 May 17:29:39 17:33:33 43° 118° (ESE) 17:37:31 435.950
KKS-1 29 May 17:29:43 17:31:57 13° 299° (WNW) 17:33:59 437.445
RS-15 29 May 17:30:50 17:42:28 80° 53° (NE) 17:54:37 29.354- 29.394
AIST 2 29 May 17:39:37 17:42:19 17° 112° (ESE) 17:45:12 435.215
MOZHAYETS 4 29 May 17:41:02 17:45:39 90° 123° (ESE) 17:50:13
CUBESAT XI-V 29 May 17:53:38 17:54:33 11° 85° (E) 17:55:46 437.345
AO-7 29 May 17:56:50 18:02:21 18° 273° (W) 18:07:27 29.400- 29.500
CUTE-I 29 May 18:04:44 18:09:58 67° 73° (ENE) 18:15:18 437.470
BEESAT 3 29 May 18:14:36 18:18:37 54° 309° (NW) 18:22:40 437.485
Cubesat XI-IV 29 May 18:26:12 18:31:30 80° 255° (WSW) 18:36:54 437.490
STRAND 1 29 May 18:43:50 18:46:40 15° 88° (E) 18:49:44 437.568
YUBILEINY 29 May 18:45:04 18:53:50 87° 84° (E) 19:02:33 435.215
Cosmos 2491 29 May 18:51:30 18:59:44 48° 89° (E) 19:08:08 435.465 / 435.565
GOMX 1 29 May 18:59:56 19:03:07 17° 60° (ENE) 19:06:33 467.674
BEESAT 2 29 May 19:08:25 19:11:49 24° 318° (NW) 19:15:12 435.950
BRITE-PL 29 May 19:11:02 19:15:32 30° 66° (ENE) 19:20:20 437.365/2234.400
HO-68 29 May 19:12:49 19:18:28 27° 58° (ENE) 19:24:18 435.675
AIST 2 29 May 19:16:21 19:20:33 55° 308° (NW) 19:24:46 435.215
MOZHAYETS 4 29 May 19:20:44 19:22:14 11° 300° (WNW) 19:23:31
AIST 1 29 May 19:21:17 19:22:41 12° 84° (E) 19:24:19
CUBESAT XI-V 29 May 19:27:59 19:32:44 85° 284° (WNW) 19:37:27 437.345
SEEDS 29 May 19:28:13 19:29:22 11° 62° (ENE) 19:30:44 437.485
PRISM 29 May 19:34:01 19:38:02 47° 99° (E) 19:42:06 437.425
COMPASS 1 29 May 19:36:41 19:37:43 11° 62° (ENE) 19:38:58 437.405
RS-15 29 May 19:44:11 19:54:04 32° 254° (WSW) 20:03:53 29.354- 29.394
DOVE 4 29 May 19:44:47 19:49:03 27° 66° (ENE) 19:53:29 437.250
M-CUBED/EXP-1 PRIME 29 May 19:45:01 19:46:55 15° 98° (E) 19:48:57 437.505
AAUSAT CUBESAT 2 29 May 19:45:46 19:47:12 12° 63° (ENE) 19:48:50 437.432
CUTE-I 29 May 19:47:11 19:50:39 17° 271° (W) 19:53:54 437.470
AUBIESAT-1 29 May 19:50:15 19:52:09 15° 98° (E) 19:54:11 437.475
BEESAT 3 29 May 19:56:36 19:57:34 11° 330° (NNW) 19:58:24 437.485
Cosmos 2504 29 May 19:59:19 20:05:14 27° 66° (ENE) 20:11:17 435.465 / 435.565
Cubesat XI-IV 29 May 20:11:58 20:12:37 10° 276° (W) 20:12:54 437.490
UWE-3 29 May 20:16:38 20:17:34 11° 60° (ENE) 20:18:46 435.000/436.395/437.385
STRAND 1 29 May 20:21:21 20:26:30 71° 286° (WNW) 20:31:37 437.568
GOMX 1 29 May 20:35:19 20:40:33 80° 257° (WSW) 20:46:05 467.674
CINEMA 3 29 May 20:37:09 20:41:48 39° 70° (ENE) 20:46:29 145.822/145.860
CANX-2 29 May 20:39:33 20:43:49 83° 75° (ENE) 20:48:05 2200.000
CUTE 1.7 + AOD 2 29 May 20:42:37 20:46:52 81° 77° (ENE) 20:51:08 437.475
YUBILEINY 29 May 20:43:37 20:49:38 20° 281° (W) 20:55:16 435.215
Cosmos 2491 29 May 20:48:36 20:56:49 41° 290° (WNW) 21:05:01 435.465 / 435.565
BRITE-PL 29 May 20:48:55 20:53:51 41° 265° (W) 20:59:06 437.365/2234.400
AIST 1 29 May 20:55:36 20:59:49 62° 281° (W) 21:04:06
ZACube-1 29 May 20:57:34 21:00:56 21° 66° (ENE) 21:04:23 437.345
HO-68 29 May 20:58:32 21:05:41 69° 257° (WSW) 21:12:53 435.675
AIST 2 29 May 20:58:41 21:00:07 11° 330° (NNW) 21:01:25 435.215
SEEDS 29 May 21:00:24 21:04:37 79° 258° (WSW) 21:08:51 437.485
Oscar 11 29 May 21:02:18 21:06:14 36° 70° (ENE) 21:10:13 145.826/435.025
DX 1 29 May 21:07:46 21:09:50 14° 62° (ENE) 21:12:06 434.975-435.025
CUBESAT XI-V 29 May 21:08:04 21:09:29 11° 300° (WNW) 21:10:41 437.345
CUBEBUG 2 29 May 21:08:16 21:12:43 40° 71° (ENE) 21:17:09 437.445
COMPASS 1 29 May 21:08:40 21:12:51 79° 257° (WSW) 21:17:03 437.405
PRISM 29 May 21:10:25 21:13:11 17° 296° (WNW) 21:15:49 437.425
AAUSAT CUBESAT 2 29 May 21:18:09 21:22:19 72° 259° (W) 21:26:28 437.432
M-CUBED/EXP-1 PRIME 29 May 21:18:59 21:21:58 31° 294° (WNW) 21:24:56 437.505
DOVE 4 29 May 21:21:35 21:26:33 45° 263° (W) 21:31:39 437.250
AUBIESAT-1 29 May 21:24:09 21:27:07 31° 294° (WNW) 21:30:06 437.475
DELFI C3 29 May 21:24:54 21:28:42 43° 72° (ENE) 21:32:33 145.870
VELOX 1 29 May 21:34:04 21:36:02 13° 61° (ENE) 21:38:14 145.980
UWE-3 29 May 21:48:44 21:53:26 82° 77° (ENE) 21:58:06 435.000/436.395/437.385
ESTCUBE 1 29 May 21:49:48 21:51:12 12° 60° (ENE) 21:52:48 437.505/2401.250
FUNcube-1 29 May 21:50:28 21:55:01 67° 75° (ENE) 21:59:32 145.935
Cosmos 2504 29 May 21:52:07 21:59:08 57° 267° (W) 22:06:07 435.465 / 435.565
HUMSAT D 29 May 22:01:18 22:05:20 41° 71° (ENE) 22:09:24 437.325/437.525
STRAND 1 29 May 22:03:39 22:04:52 11° 304° (WNW) 22:05:48 437.568
AISAT 29 May 22:04:52 22:08:33 27° 67° (ENE) 22:12:20 437.250
50 SAT 29 May 22:14:17 22:17:48 31° 70° (ENE) 22:21:20 437.505
CINEMA 3 29 May 22:14:49 22:19:05 27° 267° (W) 22:23:18 145.822/145.860
GOMX 1 29 May 22:18:24 22:19:44 11° 278° (W) 22:20:41 467.674
UKube-1 29 May 22:27:46 22:32:06 80° 76° (ENE) 22:36:28 .
ZACube-1 29 May 22:32:37 22:37:02 44° 262° (W) 22:41:25 437.345
TIGRISAT 29 May 22:37:05 22:40:04 18° 90° (E) 22:43:07 435.000
Oscar 11 29 May 22:39:07 22:42:33 22° 268° (W) 22:45:53 145.826/435.025
DX 1 29 May 22:41:15 22:45:35 69° 258° (WSW) 22:49:58 434.975-435.025
ISS 29 May 22:43:28 22:46:35 46° 143° (SE) 22:49:44 145.825
CUBEBUG 2 29 May 22:45:39 22:49:32 24° 268° (W) 22:53:19 437.445
HO-68 29 May 22:52:19 22:54:57 12° 277° (W) 22:57:00 435.675
NANOSAT C BR1 29 May 22:53:22 22:55:05 12° 88° (E) 22:57:01 145.865
DANDE 29 May 22:54:49 23:01:22 29° 61° (ENE) 23:06:53 436.750
CUBEBUG 1 29 May 22:56:55 23:01:03 44° 71° (ENE) 23:05:16 437.445
UNISAT 6 29 May 22:58:18 23:02:11 31° 95° (E) 23:06:03 437.425
DELFI C3 29 May 23:01:32 23:04:05 16° 270° (W) 23:06:30 145.870
QB50P2 29 May 23:03:00 23:05:42 17° 90° (E) 23:08:31 145.880/145.840
CUSAT 1 29 May 23:04:54 23:11:30 39° 67° (ENE) 23:16:44 437.405
VELOX 1 29 May 23:07:37 23:12:03 74° 257° (WSW) 23:16:33 145.980
DUCHIFAT 1 29 May 23:13:24 23:16:32 20° 92° (E) 23:19:45 145.980
POPSAT HIP 1 29 May 23:14:03 23:17:17 21° 92° (E) 23:20:36 437.405
GONETS M04 29 May 23:14:21 23:22:12 36° 67° (ENE) 23:30:06
BUGSAT 1 29 May 23:22:17 23:25:07 18° 91° (E) 23:28:05 437.445
ESTCUBE 1 29 May 23:22:58 23:27:28 86° 258° (WSW) 23:32:00 437.505/2401.250
SPROUT 29 May 23:24:07 23:27:38 25° 67° (ENE) 23:31:14 437.525
PCSat 29 May 23:28:17 23:32:04 20° 107° (ESE) 23:36:03 145.827
UWE-3 29 May 23:29:08 23:30:38 11° 274° (W) 23:31:50 435.000/436.395/437.385
FUNcube-1 29 May 23:29:32 23:31:51 13° 272° (W) 23:33:57 145.935
TISAT 1 29 May 23:34:59 23:38:23 24° 67° (ENE) 23:41:52 437.305
HUMSAT D 29 May 23:38:06 23:41:17 19° 269° (W) 23:44:21 437.325/437.525
AISAT 29 May 23:41:01 23:45:02 32° 264° (W) 23:49:05 437.250
ANTELSAT 29 May 23:41:26 23:45:50 89° 284° (WNW) 23:50:07 437.575/2403.000
50 SAT 29 May 23:49:24 23:52:34 22° 267° (W) 23:55:39 437.505
QB50P1 29 May 23:57:01 00:01:17 62° 101° (E) 00:05:30 145.935-145.965
POLYITAN 1 30 May 00:00:50 00:05:07 69° 102° (ESE) 00:09:21 437.675
VERMONT LUNAR 30 May 00:02:35 00:03:17 11° 151° (SSE) 00:04:02 437.305
TIGRISAT 30 May 00:12:57 00:17:06 43° 289° (WNW) 00:21:08 435.000
ISS 30 May 00:20:04 00:23:05 34° 341° (NNW) 00:26:06 145.825
Cosmos 2499 30 May 00:20:33 00:24:04 15° 57° (ENE) 00:27:57 435.465 / 435.565
O/OREOS (USA 219) 30 May 00:22:51 00:26:57 35° 59° (ENE) 00:31:05 437.305
ITUPSAT 1 30 May 00:23:04 00:25:45 16° 61° (ENE) 00:28:37 437.325
NANOSAT C BR1 30 May 00:27:11 00:31:26 63° 286° (WNW) 00:35:38 145.865
BEESAT 30 May 00:28:13 00:31:16 18° 63° (ENE) 00:34:28 436.000
CUBEBUG 1 30 May 00:34:33 00:37:41 19° 269° (W) 00:40:43 437.445
UNISAT 6 30 May 00:35:15 00:38:54 25° 293° (WNW) 00:42:24 437.425
SWISSCUBE 30 May 00:36:36 00:40:12 23° 65° (ENE) 00:43:56 437.505
DANDE 30 May 00:37:45 00:45:16 57° 267° (W) 00:51:05 436.750
QB50P2 30 May 00:37:46 00:41:54 46° 288° (WNW) 00:45:58 145.880/145.840
CUSAT 1 30 May 00:47:52 00:54:06 35° 273° (W) 00:58:58 437.405
DUCHIFAT 1 30 May 00:48:32 00:52:31 38° 290° (WNW) 00:56:26 145.980
POPSAT HIP 1 30 May 00:49:21 00:53:18 36° 290° (WNW) 00:57:13 437.405
BEESAT 3 30 May 00:54:34 00:57:37 20° 40° (NE) 01:00:43 437.485
BUGSAT 1 30 May 00:56:46 01:00:51 44° 289° (WNW) 01:04:53 437.445
SPROUT 30 May 00:59:41 01:03:36 32° 264° (W) 01:07:31 437.525
PCSat 30 May 01:09:42 01:15:03 63° 304° (NW) 01:20:28 145.827
TISAT 1 30 May 01:10:10 01:14:02 33° 264° (W) 01:17:54 437.305
PHONESAT 2.4 30 May 01:10:23 01:11:09 11° 150° (SSE) 01:11:59 2401.200-2431.200
GONETS M04 30 May 01:10:59 01:19:30 55° 269° (W) 01:27:51
ANTELSAT 30 May 01:21:26 01:21:57 10° 301° (WNW) 01:22:14 437.575/2403.000
QB50P1 30 May 01:34:20 01:36:42 14° 297° (WNW) 01:38:53 145.935-145.965
VERMONT LUNAR 30 May 01:37:00 01:39:53 30° 166° (SSE) 01:42:47 437.305
SO-50 30 May 01:37:47 01:40:34 16° 110° (ESE) 01:43:37 436.795
POLYITAN 1 30 May 01:38:28 01:40:31 13° 298° (WNW) 01:42:22 437.675
Oscar 19 30 May 01:41:53 01:46:18 29° 94° (E) 01:50:46 437.125/150
BEESAT 2 30 May 01:47:22 01:51:20 44° 50° (NE) 01:55:15 435.950
ISS 30 May 01:57:34 02:00:08 21° 1° (N) 02:02:44 145.825
ITUPSAT 1 30 May 01:58:25 02:03:09 69° 258° (WSW) 02:07:55 437.325
AIST 2 30 May 01:58:44 02:02:03 22° 41° (NE) 02:05:23 435.215
O/OREOS (USA 219) 30 May 02:02:33 02:06:15 25° 256° (WSW) 02:09:50 437.305
BEESAT 30 May 02:04:01 02:08:42 59° 259° (W) 02:13:26 436.000
ITAMSAT 1 30 May 02:04:36 02:07:08 14° 87° (E) 02:09:57 435.822/435.867
Cosmos 2499 30 May 02:11:32 02:18:38 80° 80° (E) 02:25:51 435.465 / 435.565
STARS 30 May 02:11:40 02:14:57 21° 65° (ENE) 02:18:21 437.465
SWISSCUBE 30 May 02:13:17 02:17:49 44° 262° (W) 02:22:23 437.505
BEESAT 3 30 May 02:31:55 02:35:56 54° 240° (WSW) 02:39:52 437.485
